Wind_Gust
16 16 16 16 16 17 17 17 18 19 19 19 20 20 20 20 20 20 21 21 20 20 20 20 19 19 20 21 22 23 19 18 20 14 10 28 11 18 17 10 5 7 12 6 3 2 3 2 4 2 6 6 6 6 7 5 5 6 10 9 9 10 7 10 13 14 5 8 10 17 10 11 12 8 11 20 17 15 14 14 12 21 17 21 25 25 25 22
16 16 16 16 16 17 17 17 17 18 19 19 19 20 20 20 20 20 20 21 21 19 19 19 19 19 20 21 22 21 19 13 19 18 31 19 16 20 21 20 13 9 9 6 4 4 4 1 3 4 10 8 2 7 6 10 8 10 8 10 19 10 14 8 7 8 7 10 12 13 11 7 7 4 8 17 7 16 19 13 17 21 22 22 24 25 25 22
16 17 16 17 17 16 17 17 17 18 19 19 20 20 21 20 20 20 20 20 20 19 19 18 19 19 20 20 20 18 16 18 11 15 23 12 30 25 24 21 21 14 7 5 4 7 7 6 7 7 4 6 3 8 5 10 12 10 12 14 15 8 8 6 8 10 7 8 15 13 16 12 7 4 5 12 12 7 25 26 21 23 26 24 23 24 23 22
16 17 17 17 17 17 17 17 18 18 18 19 20 20 20 21 20 20 20 20 20 19 18 19 19 19 20 20 20 13 11 9 11 10 5 14 15 20 25 23 21 18 7 6 4 9 6 6 6 8 6 5 6 3 13 11 15 8 11 19 10 10 10 11 10 14 13 3 8 8 11 10 7 8 11 16 20 6 7 23 32 28 27 27 27 23 23 22
18 16 17 17 17 17 17 18 18 18 18 19 20 20 21 21 20 20 19 20 19 20 18 18 19 19 20 20 19 7 9 6 11 5 11 17 19 20 20 26 21 13 13 5 4 2 4 4 6 4 7 14 3 3 8 7 10 11 17 5 6 4 6 13 11 11 8 6 5 7 12 13 8 5 16 24 23 23 28 20 21 33 34 35 30 28 24 22
19 18 17 17 17 17 18 18 18 18 18 19 19 20 21 20 20 20 19 19 19 19 19 17 18 19 19 20 15 3 4 13 4 4 17 20 23 26 21 21 17 15 14 9 8 4 6 2 6 10 9 6 8 14 8 8 6 15 10 5 6 9 12 6 8 8 2 7 7 10 8 9 3 7 10 7 8 10 14 12 19 28 29 25 27 30 25 23
21 19 18 17 17 17 18 19 19 19 19 19 20 20 20 20 20 20 20 19 18 18 18 17 17 18 18 13 14 3 8 27 6 7 21 22 26 27 22 11 19 17 14 12 8 11 6 6 6 5 9 6 4 13 10 3 4 13 19 2 6 6 12 9 15 13 10 6 14 9 10 12 5 11 5 6 9 12 17 21 23 23 22 24 24 23 24 22
22 21 20 19 17 17 17 18 19 20 20 20 20 20 20 20 20 19 18 18 17 18 17 16 16 17 15 11 13 7 4 25 12 7 19 25 25 25 16 13 14 13 13 15 13 8 8 10 13 7 8 16 8 14 4 4 3 10 13 4 9 6 10 12 14 14 12 13 10 7 9 8 5 9 5 7 10 15 20 23 25 24 22 20 21 21 18 19
22 22 21 21 19 17 17 17 18 19 20 20 20 20 21 19 18 17 18 17 18 17 17 15 16 14 13 8 8 13 24 15 7 11 18 21 21 19 12 11 4 15 12 9 9 9 11 11 8 9 11 8 5 7 3 7 14 12 10 5 8 11 10 10 11 11 13 12 5 5 6 7 12 14 13 7 12 16 22 24 24 24 24 21 19 19 18 19
22 23 23 21 20 20 17 18 19 19 19 20 20 20 19 19 18 17 17 18 18 17 16 16 14 14 12 13 8 7 16 6 7 14 19 22 22 18 13 11 10 4 11 6 6 8 11 13 12 6 6 5 5 9 5 8 13 5 6 11 13 15 8 7 9 12 9 8 5 6 4 11 8 10 6 8 16 20 24 25 22 23 21 20 19 18 19 22
22 23 23 22 21 21 19 17 19 19 19 19 20 19 19 18 18 18 17 18 17 16 15 16 14 10 8 8 9 21 7 5 5 16 21 22 22 15 13 12 7 6 5 4 10 10 9 7 4 7 6 16 8 6 6 10 5 5 7 4 7 10 8 10 9 14 5 12 8 12 12 4 8 4 16 16 18 22 27 25 25 21 19 21 20 19 18 18
22 23 22 22 21 21 20 18 18 18 19 20 19 19 18 18 18 18 18 18 19 16 15 15 14 9 11 15 21 35 10 14 18 18 20 18 19 15 11 10 6 6 4 7 7 12 9 7 3 5 14 5 10 2 7 5 4 5 3 6 10 7 14 5 11 11 7 14 9 8 9 4 6 9 13 19 20 20 23 27 25 22 18 20 20 19 17 20
23 22 22 22 22 22 22 21 18 18 18 19 19 19 19 19 19 20 19 18 16 17 17 16 12 7 11 23 36 34 30 34 27 21 23 11 16 16 14 11 8 7 7 8 8 7 7 7 3 4 7 5 5 15 5 3 5 5 2 6 6 7 11 12 5 5 6 13 14 12 9 11 10 11 15 19 22 22 21 21 22 18 19 19 16 18 17 16
23 23 23 22 22 22 23 23 21 18 19 18 18 19 20 20 21 21 20 19 20 18 15 14 7 6 15 30 29 15 15 21 18 23 24 15 8 15 5 9 7 8 6 9 13 7 4 6 9 9 6 4 9 6 12 9 4 8 6 3 8 3 14 8 9 7 9 10 11 8 10 11 9 12 16 18 24 28 24 21 20 18 18 16 16 15 15 14
24 23 22 22 22 23 23 23 23 20 18 19 19 20 20 21 21 21 22 19 17 16 16 11 6 6 13 28 18 22 28 21 19 27 24 9 8 14 15 5 4 6 8 12 10 6 8 9 8 10 12 7 8 7 11 5 6 4 10 13 7 9 13 13 5 11 15 10 10 12 7 12 8 16 17 16 21 21 25 20 19 18 18 19 21 16 14 13
23 23 22 22 22 23 24 23 23 23 18 19 19 19 20 22 22 21 21 19 19 17 9 5 6 9 12 32 16 10 6 6 14 20 12 15 10 14 5 5 8 10 5 7 13 8 10 11 13 14 8 4 5 10 3 7 8 8 11 6 7 5 10 8 3 10 14 10 3 10 12 10 3 10 20 22 19 19 24 20 19 19 19 21 24 26 17 14
23 23 23 22 22 22 22 23 22 21 21 18 19 19 19 21 23 22 22 20 14 7 8 10 4 13 12 14 10 7 12 13 7 4 5 14 16 15 6 5 6 8 7 5 8 8 5 15 7 9 9 13 10 11 7 10 10 12 6 14 8 9 6 9 12 5 6 6 7 5 14 10 12 16 19 13 17 24 22 21 19 19 18 17 19 18 16 14
25 24 23 23 23 22 22 22 22 22 21 20 15 17 26 24 25 22 15 11 7 8 12 9 4 9 32 17 18 9 4 9 5 8 9 8 19 11 6 9 5 2 5 7 4 11 11 15 11 14 7 14 13 14 27 29 24 12 9 9 6 3 5 8 11 5 7 3 10 7 12 7 12 17 18 23 24 24 23 25 24 20 21 22 20 18 15 15
25 24 23 23 23 22 22 21 21 20 19 17 15 19 26 25 14 5 7 10 11 5 8 21 20 20 9 5 11 9 9 10 8 6 7 11 6 7 6 4 4 6 8 10 11 13 11 10 6 8 26 23 26 21 17 5 12 11 10 11 8 9 8 7 11 6 12 5 5 7 12 7 12 16 18 19 23 24 21 20 18 19 20 22 18 16 16 16
25 24 23 23 22 22 21 21 19 19 18 10 9 18 15 12 9 7 5 8 15 14 5 11 26 13 22 14 6 6 8 5 7 5 3 6 17 9 6 8 5 6 9 18 9 15 14 18 23 32 22 10 6 12 11 6 8 14 7 8 8 8 8 6 7 9 5 8 9 10 8 11 17 19 20 22 18 15 20 23 20 22 22 20 17 17 18 15
25 25 23 22 22 22 21 20 19 16 12 6 5 13 12 7 8 11 8 16 19 20 23 13 23 25 26 11 6 17 19 9 2 7 7 5 8 17 13 13 9 10 11 7 18 7 16 14 26 10 8 12 12 11 10 9 9 9 7 6 7 6 8 8 7 7 9 9 3 8 9 11 22 16 20 19 22 21 22 20 21 23 19 17 21 22 17 15
25 25 24 23 22 22 21 19 18 15 10 7 5 14 14 14 11 7 8 18 12 23 23 25 16 23 28 24 16 7 7 12 20 13 9 11 10 25 9 17 13 20 6 7 9 16 24 35 14 8 9 12 11 13 14 14 13 8 9 5 6 9 6 11 9 5 2 5 5 6 10 4 8 10 17 26 28 30 26 19 26 24 19 18 18 18 18 18
25 25 23 23 22 22 21 19 16 13 7 6 7 8 17 14 9 9 8 20 28 21 23 23 20 28 34 24 16 8 10 15 19 11 7 11 7 17 15 18 15 12 13 11 25 17 20 17 13 11 12 15 7 13 13 12 9 12 7 10 13 6 8 10 10 4 6 9 10 8 13 4 5 6 6 12 12 14 25 24 26 20 25 24 21 19 22 18
26 25 23 22 21 19 19 17 10 6 9 9 12 18 12 9 11 10 11 14 19 15 23 26 28 22 31 24 19 22 17 14 13 13 8 13 16 9 17 17 13 15 23 20 14 17 12 5 10 16 12 15 13 9 15 14 16 6 9 8 7 6 4 9 6 5 2 6 12 14 14 5 9 11 10 9 20 24 28 24 23 26 25 16 18 16 13 18
26 24 22 21 20 19 17 14 9 11 5 4 14 13 14 19 15 10 10 14 15 25 9 13 17 20 14 10 10 21 15 13 14 9 8 12 12 18 13 16 19 22 16 9 6 6 9 7 12 17 15 11 14 13 18 16 10 11 7 10 10 6 6 5 6 6 10 4 7 13 10 14 8 7 13 10 12 15 22 23 18 14 24 20 17 16 15 13
24 22 21 20 19 17 12 12 8 7 8 11 11 5 7 10 12 12 10 10 17 11 7 10 22 17 23 11 16 16 11 18 15 24 10 11 10 13 17 20 23 22 9 12 15 18 12 4 13 20 16 15 14 15 9 16 15 11 18 14 9 8 6 3 4 6 4 10 7 4 17 19 7 13 14 13 14 14 22 21 17 16 17 19 12 15 15 16
21 20 19 19 18 14 9 15 4 8 6 9 6 11 12 14 11 15 12 12 12 15 14 5 12 20 22 18 26 18 10 20 15 12 15 13 14 12 16 10 14 9 15 16 16 28 18 12 9 10 18 17 18 22 17 18 17 17 7 18 11 7 7 4 5 6 6 6 11 3 14 18 13 19 11 16 18 19 17 17 21 16 18 16 21 17 12 14
20 19 19 19 19 12 10 8 9 8 10 12 12 13 17 10 9 8 7 10 20 11 9 8 17 13 6 16 18 26 9 8 20 14 15 12 6 13 14 10 16 14 13 18 32 8 18 14 13 13 14 22 29 17 10 14 21 13 6 16 13 13 9 6 5 5 4 3 16 8 4 15 19 13 15 20 19 17 21 21 23 20 23 17 16 14 15 13
19 18 18 17 18 16 13 12 7 11 4 8 13 14 15 13 7 13 11 8 14 11 14 16 12 9 6 14 16 16 5 6 6 11 13 6 12 9 21 9 13 13 7 14 16 6 14 17 16 11 15 25 13 13 15 17 14 6 14 10 10 9 9 12 10 7 6 7 17 16 12 20 12 7 18 20 21 27 26 20 23 25 27 23 24 16 18 14
18 16 16 15 12 9 9 8 16 5 6 12 11 12 10 8 11 7 10 13 7 7 5 9 9 10 13 20 15 11 8 6 4 16 13 16 11 5 8 10 13 15 11 5 9 11 4 8 15 22 21 11 12 10 16 16 10 7 13 12 6 6 7 5 7 10 7 13 30 17 14 17 18 16 23 27 31 28 25 19 19 22 22 22 19 16 18 15
16 18 17 12 11 8 7 10 8 8 10 7 10 8 5 7 14 12 7 20 12 8 6 5 7 15 17 17 15 11 8 5 5 19 17 13 13 8 11 13 6 15 7 7 12 12 14 6 17 19 15 13 11 12 11 18 12 17 17 13 12 5 6 6 4 5 17 26 21 11 19 10 21 11 15 11 15 26 30 28 27 28 25 24 18 17 16 17
17 17 15 11 13 8 14 8 9 6 4 6 6 8 10 19 9 14 19 9 12 11 6 6 9 10 7 5 9 23 21 6 5 20 23 24 16 21 24 25 30 30 24 22 22 9 18 18 7 4 17 17 14 13 6 16 13 15 12 16 20 16 16 18 10 17 28 33 10 11 16 8 22 12 17 16 21 27 28 30 31 29 24 17 22 20 21 17
14 14 15 14 10 10 10 9 8 6 6 6 5 5 13 17 20 16 13 10 11 9 10 6 7 7 7 7 8 14 7 9 5 10 12 13 16 14 6 12 11 20 27 11 10 18 19 11 8 10 7 19 16 25 17 19 20 21 22 23 24 22 23 22 19 17 13 13 4 5 15 21 9 8 10 21 20 30 29 23 21 25 25 23 24 20 19 17
11 9 5 6 9 11 8 11 8 9 7 8 5 6 9 12 14 12 10 4 7 10 9 7 16 9 10 22 10 14 11 5 9 16 13 16 16 22 17 13 14 10 13 13 28 25 17 22 33 19 23 16 24 22 18 12 18 19 9 20 17 20 31 27 23 31 21 13 10 5 17 19 9 9 13 11 15 17 22 21 17 18 19 19 19 19 19 17
9 7 4 4 6 7 9 9 7 12 4 5 6 13 16 18 7 6 7 10 9 12 12 15 7 2 5 8 4 12 10 15 6 11 15 18 22 23 23 22 10 12 9 25 17 19 24 29 12 19 6 14 19 11 13 15 15 13 13 13 15 30 15 16 14 11 10 9 8 9 18 7 8 11 10 14 20 20 21 24 22 18 19 24 22 22 18 18
11 8 6 6 4 5 8 11 13 7 5 5 11 13 17 13 13 6 7 8 7 13 20 18 4 6 3 6 4 11 11 9 11 11 9 14 10 20 11 15 23 18 16 25 14 21 13 31 3 9 14 7 16 14 15 18 31 19 19 30 31 11 13 11 4 3 8 10 13 8 11 9 5 6 10 17 21 22 23 24 22 20 18 20 20 19 18 18
10 8 6 3 3 6 13 10 9 6 6 7 10 10 13 9 4 4 9 10 6 12 12 12 10 8 6 7 7 9 11 6 7 15 14 9 15 13 21 12 9 13 10 17 8 11 22 13 6 9 17 17 7 21 10 17 14 20 26 23 9 11 12 13 14 6 9 18 20 6 10 11 13 16 10 18 21 19 23 26 23 21 19 23 21 18 19 21
10 8 8 5 6 8 9 10 10 7 8 8 16 11 6 7 3 6 8 12 6 8 8 8 6 7 5 7 6 5 6 16 6 13 10 9 19 9 15 22 10 16 13 5 14 12 11 9 14 13 12 14 8 8 9 11 13 26 25 13 28 20 19 14 13 11 12 17 17 11 10 10 14 14 17 21 22 19 22 22 25 24 23 22 20 20 18 18
4 5 8 3 6 9 10 13 9 11 7 14 13 12 6 8 5 7 10 9 6 6 6 8 11 7 6 6 5 5 8 21 8 9 14 15 14 11 20 15 11 10 15 10 14 9 9 14 11 10 17 11 14 15 25 23 14 12 12 21 15 14 19 19 24 11 16 9 10 11 11 21 20 14 22 27 29 26 26 26 23 21 18 19 20 21 19 17
8 8 5 4 11 6 14 13 10 8 5 9 5 13 6 9 6 7 10 9 6 6 8 7 9 9 9 5 7 6 5 8 11 12 9 8 19 5 15 16 15 15 14 10 10 5 9 6 7 12 7 13 23 26 25 22 24 15 18 15 19 26 9 15 9 14 15 20 15 18 19 22 12 14 20 27 31 35 36 32 27 24 22 20 19 22 21 17
4 4 7 7 14 11 15 11 10 12 8 4 7 6 6 10 10 9 10 9 11 7 13 13 11 5 5 12 11 5 6 3 10 11 14 7 21 12 11 16 15 19 12 11 15 8 10 11 15 5 16 23 20 15 15 13 15 15 18 18 19 21 16 27 20 11 13 19 19 22 27 11 9 7 24 21 21 27 25 31 28 25 23 23 22 19 21 20
6 9 7 6 9 14 13 15 10 5 7 6 5 6 9 11 9 9 9 9 7 13 13 18 11 10 8 11 9 6 5 6 5 5 8 11 9 10 9 12 18 15 27 23 18 9 14 11 11 6 18 16 15 6 10 17 13 16 21 19 11 10 14 18 23 13 9 9 10 9 13 14 8 8 16 21 22 23 22 23 22 21 23 22 21 20 18 19
7 10 6 4 3 11 8 6 5 9 9 7 8 10 9 11 7 9 12 8 9 11 13 13 10 8 11 12 5 10 8 9 7 11 7 8 9 21 8 14 14 20 20 21 9 14 10 18 11 8 10 10 8 8 7 10 15 9 18 15 14 15 13 19 21 15 16 6 8 6 11 12 6 5 12 18 16 19 21 21 23 20 20 22 22 20 20 17
9 9 8 5 4 7 5 9 9 5 8 9 6 11 8 10 10 13 10 7 9 9 7 9 9 15 9 7 7 9 6 8 4 2 6 5 12 7 9 10 14 25 24 17 25 11 25 11 13 6 10 10 13 10 6 5 19 19 18 18 18 16 8 6 11 7 17 17 16 17 16 11 10 11 15 20 21 21 22 20 26 25 19 21 21 19 18 19
13 8 6 5 6 7 10 7 4 5 6 4 5 7 7 6 9 14 12 12 10 13 7 13 18 6 9 3 7 8 15 9 8 5 2 2 7 3 6 13 12 11 13 11 13 14 16 8 15 13 15 19 22 28 24 14 20 17 14 21 19 23 14 11 13 12 20 10 8 18 15 9 11 16 18 21 20 18 19 21 21 26 23 21 18 18 18 19
7 10 7 7 10 11 9 5 8 4 6 5 5 11 8 12 8 9 10 17 18 19 22 17 15 11 11 4 4 8 10 6 13 7 5 6 5 6 7 7 14 14 10 17 18 19 19 9 10 14 16 14 13 10 8 8 13 22 12 19 20 21 20 14 13 14 20 10 14 11 15 21 20 20 21 22 25 24 24 24 26 26 23 20 18 18 18 19
6 5 5 7 8 6 10 7 8 8 5 5 8 8 7 10 7 13 13 17 14 24 17 19 15 9 8 4 8 5 10 4 3 3 6 4 5 7 10 8 7 7 15 18 17 17 11 13 7 11 13 16 10 7 11 7 17 16 14 16 18 19 15 15 17 21 13 23 14 10 16 33 24 23 22 23 24 25 24 24 24 24 24 23 20 19 18 20
8 5 3 7 9 13 12 14 13 11 11 8 8 6 6 7 6 8 9 19 20 15 12 4 15 17 11 16 6 7 8 5 3 6 3 2 3 7 7 5 8 13 11 16 16 15 17 17 5 9 11 7 6 8 10 7 5 9 12 17 18 17 19 21 21 15 17 21 23 18 23 26 29 33 36 36 36 35 32 28 24 23 24 22 23 22 21 21
5 7 7 6 7 4 14 4 8 13 13 10 9 6 12 10 13 13 11 10 8 7 17 8 4 12 15 11 7 6 5 6 6 3 5 3 2 4 6 6 4 10 11 13 19 13 19 8 8 7 8 7 8 9 8 6 5 9 8 7 16 20 21 22 18 12 22 10 18 31 30 24 29 32 28 24 20 24 23 21 22 24 26 25 25 23 22 21
11 9 8 5 8 9 7 5 4 8 12 13 10 10 11 10 13 11 10 10 8 9 3 5 5 5 7 10 12 10 9 7 5 5 2 2 5 3 3 5 7 8 9 16 20 8 19 10 7 7 8 8 6 11 14 9 8 15 7 11 10 12 21 19 14 9 11 13 6 26 21 12 6 17 19 19 22 22 23 24 24 23 25 27 26 24 22 21
11 7 8 11 13 7 8 8 10 10 9 7 14 10 8 13 15 11 10 6 12 10 6 3 4 7 4 4 7 11 8 6 7 8 6 3 4 4 6 6 4 5 9 11 10 12 15 8 7 9 12 10 6 12 11 12 12 15 10 14 14 11 14 10 23 14 16 17 23 17 18 13 11 21 21 23 26 29 29 26 25 23 24 26 28 25 23 21
13 7 8 9 8 8 7 7 7 7 15 12 15 11 12 6 5 6 15 10 12 16 9 2 2 2 7 5 9 9 6 7 8 10 10 12 9 5 4 7 5 3 4 7 3 16 17 17 12 8 12 14 6 11 15 14 12 6 8 7 10 6 3 4 6 7 11 33 26 22 23 24 31 32 32 28 30 27 27 27 25 23 22 23 25 26 24 23
Wind_Speed
12 13 13 13 13 13 13 13 13 14 15 15 15 15 15 15 16 15 16 16 16 15 15 16 15 15 14 16 17 19 16 9 11 7 6 14 5 13 14 7 2 3 2 3 1 2 1 1 3 1 3 3 1 3 3 1 1 2 2 3 5 4 4 4 5 5 1 1 5 8 3 5 8 3 1 5 9 9 9 9 6 10 8 9 12 15 14 13
12 12 13 13 13 13 13 13 14 13 14 15 15 15 16 16 15 16 16 15 16 16 14 14 15 15 16 16 18 17 12 7 12 12 16 10 8 14 15 15 10 6 6 3 3 1 2 0 1 3 5 2 1 1 3 1 1 3 1 2 9 4 5 4 3 5 2 5 5 7 0 3 4 1 1 6 3 9 10 7 8 12 13 14 15 16 14 13
11 12 13 13 13 13 13 13 13 14 14 15 15 16 15 16 15 15 16 15 15 15 15 14 14 15 15 16 17 13 9 11 6 9 8 6 12 16 18 17 13 10 3 2 3 4 3 4 5 4 1 3 1 3 2 1 4 4 5 6 7 4 4 4 2 4 3 5 8 9 4 4 3 1 1 3 4 4 12 12 9 13 15 17 15 16 14 14
12 13 13 13 13 13 13 13 13 13 13 14 15 15 16 15 16 15 15 16 16 15 14 14 15 15 16 16 17 8 6 5 3 3 2 8 11 11 10 17 16 13 4 0 3 2 0 4 4 5 1 2 1 1 4 3 3 1 2 6 3 5 3 4 5 7 8 2 4 4 5 5 2 1 2 5 6 1 3 7 19 17 19 18 18 15 14 13
14 13 13 13 13 13 13 13 13 13 14 14 14 15 16 16 15 15 15 15 14 15 15 13 14 15 16 16 15 4 5 3 2 3 6 12 15 16 14 10 16 9 9 3 3 0 1 1 3 1 2 3 0 2 3 3 3 4 7 2 2 2 2 5 4 6 3 4 1 4 8 4 2 1 6 8 4 7 7 12 3 18 23 23 20 17 14 14
15 14 14 13 13 13 13 13 13 14 13 14 14 15 16 16 15 15 15 15 13 13 15 13 13 14 15 15 8 1 1 2 1 1 11 15 17 20 17 3 14 10 10 6 4 2 4 1 4 3 1 2 5 7 2 3 3 4 2 2 4 4 4 1 1 2 1 2 4 6 4 3 1 0 5 4 0 5 3 4 12 12 13 16 16 18 17 16
16 15 14 14 13 13 13 14 14 14 13 14 15 15 15 15 15 14 15 14 14 12 14 14 13 14 14 11 5 1 2 9 3 3 14 16 18 20 17 5 15 12 10 7 4 4 3 4 3 3 4 2 1 3 2 1 1 4 3 0 3 4 7 3 5 6 5 3 6 3 7 5 3 4 1 3 4 1 8 13 15 15 15 16 15 12 14 15
16 17 15 15 14 13 13 13 14 14 13 13 14 14 15 15 15 14 13 13 13 13 13 13 12 13 12 6 6 3 1 10 7 4 13 19 17 16 11 9 6 8 9 10 9 5 4 5 6 3 3 8 3 6 2 1 0 5 4 2 4 3 5 6 5 4 4 5 5 5 6 4 4 4 3 3 4 6 11 15 17 16 15 14 14 15 13 13
15 17 17 16 16 14 13 13 12 14 13 13 13 13 14 14 14 13 13 13 13 13 13 12 12 11 10 3 3 7 10 6 3 4 11 14 15 10 9 5 2 6 5 5 7 6 7 5 3 4 4 3 2 5 1 4 5 4 5 1 4 6 6 4 4 5 5 3 3 1 4 4 4 7 6 5 8 9 14 16 17 17 16 14 13 13 12 11
16 15 16 17 15 16 14 12 13 13 13 13 13 13 13 14 13 13 13 13 13 13 12 12 10 10 6 5 4 2 6 2 3 7 10 13 13 12 7 6 6 1 5 4 4 6 6 4 7 4 4 2 3 2 2 5 4 2 4 7 8 8 5 3 2 3 0 1 4 4 2 1 4 3 1 5 11 13 15 16 15 15 14 13 12 11 12 14
16 17 16 16 16 16 16 13 13 14 13 12 13 13 14 14 13 13 13 14 13 12 11 12 10 6 3 3 3 9 1 3 2 9 12 11 10 8 8 6 4 2 4 3 5 6 4 5 3 3 2 3 4 2 3 3 0 2 2 1 4 6 5 6 4 7 0 4 5 6 4 1 5 1 5 9 12 14 18 17 17 14 13 13 14 12 12 11
17 15 16 18 16 16 16 14 13 13 13 12 13 13 14 13 13 13 13 13 14 12 11 11 11 3 5 7 10 14 5 8 11 10 11 9 8 6 8 4 3 2 2 4 3 3 1 3 2 1 3 2 1 1 2 2 0 1 0 2 5 4 4 2 3 2 4 3 3 5 3 2 2 1 3 12 13 14 16 18 16 14 11 12 13 11 10 12
18 17 15 15 16 16 16 17 15 13 13 12 12 13 13 13 13 15 14 13 12 13 12 11 9 2 2 12 16 17 19 19 15 14 14 5 8 7 9 6 6 4 2 4 3 2 1 1 0 1 1 2 2 2 1 0 1 0 1 2 3 3 5 8 1 2 4 2 7 5 0 5 6 3 8 11 14 15 14 13 14 11 11 9 9 10 10 9
17 18 18 16 15 17 15 18 18 14 12 11 11 13 13 14 14 14 14 14 14 13 11 10 3 1 5 13 7 5 10 12 12 16 13 3 3 4 2 3 4 4 3 3 2 1 2 1 0 2 0 1 1 2 2 2 2 3 1 1 2 1 5 3 1 1 4 3 7 4 3 5 6 3 8 9 15 19 15 14 13 11 11 10 7 5 1 6
17 17 17 17 16 16 17 16 18 16 14 12 12 12 14 15 15 15 14 14 13 11 12 7 3 1 5 9 8 15 23 13 11 15 6 4 1 6 2 2 2 4 5 5 2 3 3 3 1 0 2 2 0 2 3 2 3 0 3 5 2 5 6 8 3 4 4 0 3 7 2 6 4 6 10 8 12 12 14 13 12 11 10 10 12 9 4 3
17 17 17 16 16 17 16 16 16 17 16 13 13 13 15 16 15 15 16 14 15 13 5 3 2 4 6 11 4 5 2 1 6 6 5 9 6 7 2 1 1 1 3 3 3 2 3 4 3 5 1 2 2 5 1 2 1 3 5 2 2 3 4 4 2 5 4 3 1 4 4 1 0 2 11 11 11 8 10 12 11 10 11 11 10 12 9 4
18 17 17 17 16 15 17 16 17 17 16 15 14 15 11 13 16 17 17 15 7 3 3 2 2 5 3 5 3 3 4 5 3 1 1 6 8 3 4 1 0 1 1 3 5 4 1 3 1 2 1 3 4 5 2 4 4 3 1 4 3 5 2 2 6 3 1 2 2 1 5 5 1 10 8 5 12 1 8 11 11 10 10 10 9 9 9 6
20 18 17 17 18 16 16 16 16 15 14 16 11 8 10 15 18 17 10 5 1 3 5 4 1 3 11 3 7 4 2 4 1 4 3 2 6 2 1 1 1 1 2 3 0 4 2 2 2 5 1 5 5 7 11 13 9 4 4 4 1 0 1 3 2 2 2 1 4 2 4 5 2 9 11 12 11 17 12 8 11 12 14 13 12 10 7 7
19 19 18 16 16 17 16 16 15 15 12 13 8 10 14 13 3 1 1 4 5 2 1 6 8 7 2 3 6 6 3 6 4 2 2 4 2 2 0 2 2 4 2 4 2 5 2 3 2 2 10 10 12 11 7 2 8 6 7 5 3 4 2 2 5 3 2 2 2 5 6 4 4 9 8 9 9 12 12 10 8 10 12 11 10 9 7 8
19 19 18 17 16 16 16 15 15 14 10 7 3 3 4 5 3 1 1 4 6 5 1 3 12 6 13 3 2 2 3 2 2 2 1 2 7 3 2 2 2 2 4 7 4 6 5 6 9 15 10 6 4 6 6 3 5 9 4 5 5 5 2 3 4 5 3 1 1 2 5 6 10 12 12 13 10 6 9 13 9 9 11 12 6 7 10 9
19 19 19 17 16 15 16 15 15 12 7 1 0 3 1 0 2 3 3 7 11 13 14 8 14 16 12 1 2 10 9 5 0 2 2 2 3 7 3 4 3 4 2 5 8 1 8 6 13 6 6 8 8 7 5 5 4 6 5 4 2 2 3 3 0 5 4 1 1 2 6 7 11 8 10 9 10 13 12 10 2 5 4 2 12 9 10 9
19 20 19 18 16 15 15 13 14 11 5 3 2 1 2 4 5 3 2 6 7 16 16 17 10 13 15 14 7 4 3 4 12 8 4 7 3 9 3 6 5 9 3 1 5 5 10 17 6 5 6 9 8 8 7 6 2 2 4 3 3 2 2 6 1 3 2 1 3 0 5 3 3 1 5 11 14 7 5 6 8 4 7 5 6 9 11 10
20 20 18 17 17 15 14 15 11 9 2 2 2 2 4 3 2 3 2 7 12 10 14 14 12 18 19 9 7 4 6 6 8 5 1 6 3 4 6 7 9 5 5 5 12 7 8 7 8 6 8 10 4 9 9 6 4 4 3 2 2 1 3 4 2 3 4 2 4 3 6 2 2 1 3 8 6 8 12 11 13 10 5 8 5 8 10 10
20 19 18 17 16 15 12 11 7 1 4 6 6 7 2 2 4 5 5 4 7 8 13 14 17 12 16 9 5 12 9 4 5 7 3 4 8 3 5 7 8 6 11 11 7 8 4 3 6 10 8 10 8 6 10 8 7 1 4 4 3 0 1 3 0 2 1 3 4 7 6 2 1 3 2 5 6 10 9 12 7 7 9 2 3 8 8 9
19 19 18 16 16 14 11 9 3 4 3 2 7 6 7 7 4 4 4 4 4 8 5 5 6 8 4 5 6 9 8 4 8 2 2 6 5 4 3 2 5 11 7 5 2 3 5 3 8 10 7 7 9 8 10 10 7 3 3 6 6 3 3 1 2 2 2 1 3 5 1 3 3 3 7 4 4 7 6 12 5 2 10 7 3 7 8 7
17 16 15 15 14 13 9 5 3 3 5 4 2 1 1 2 4 5 4 2 6 3 2 3 7 5 7 5 7 5 8 4 9 11 3 5 4 2 2 4 3 11 6 7 6 2 4 2 8 12 10 6 7 7 6 10 7 6 7 7 6 5 3 0 3 1 1 2 1 1 8 4 3 5 6 4 6 8 3 8 8 6 6 11 4 1 6 7
15 14 13 13 12 7 2 4 1 5 2 1 2 2 2 3 4 4 2 2 4 2 6 2 3 2 5 8 11 9 2 7 6 4 7 3 6 3 4 4 3 1 3 2 2 7 5 3 6 7 10 10 7 7 6 9 9 4 4 10 6 4 4 1 3 2 1 2 5 1 3 3 2 6 4 8 8 9 7 5 6 8 10 11 13 9 7 7
14 14 13 12 12 3 5 2 5 2 2 2 1 3 4 3 3 2 1 1 3 4 3 2 4 3 0 9 10 9 3 4 4 3 9 6 1 4 3 6 7 8 6 7 14 2 9 3 6 8 7 9 10 4 6 8 7 3 4 11 8 8 5 3 2 1 0 2 7 4 0 1 4 3 8 10 8 8 10 10 8 12 13 12 8 7 7 8
12 12 12 11 10 10 2 4 3 4 1 3 3 3 2 3 2 3 2 0 1 3 2 8 4 3 2 7 7 7 1 1 1 4 6 3 5 3 4 4 6 8 4 8 6 1 1 7 6 7 6 7 4 9 10 9 6 3 9 5 5 5 4 5 3 1 2 1 7 8 4 4 4 2 9 9 7 10 10 10 10 14 15 14 15 9 9 9
11 12 11 11 7 2 2 2 8 2 1 3 2 4 2 2 4 0 0 3 1 1 2 1 1 4 6 9 5 5 2 2 1 3 4 4 6 0 2 5 5 7 4 2 4 5 1 1 9 5 6 4 6 6 10 8 4 4 9 7 4 2 3 3 2 3 2 3 14 4 4 4 3 6 11 13 10 9 9 8 8 9 13 13 13 8 7 9
12 10 6 3 2 2 1 3 3 0 4 3 4 3 2 1 3 3 1 3 3 2 1 1 2 8 8 8 5 4 3 2 1 7 6 3 6 3 3 1 2 6 3 3 5 3 0 2 4 2 8 4 7 5 6 10 6 12 4 5 7 4 3 2 1 1 4 9 5 4 7 6 6 3 6 4 9 16 17 17 15 15 17 13 12 9 4 1
10 9 8 3 3 1 4 1 4 2 2 4 3 2 3 5 1 3 4 3 1 2 2 2 4 3 3 1 3 4 5 1 1 7 10 9 8 7 10 8 7 10 10 9 8 0 3 1 2 0 8 10 5 8 3 8 6 6 7 9 10 4 3 3 1 4 10 8 1 2 9 2 8 4 8 10 14 16 17 16 18 17 16 11 13 13 13 7
10 8 8 4 4 2 1 4 3 2 3 1 1 2 4 4 4 6 4 4 2 3 2 3 2 1 4 3 2 4 3 3 2 4 6 4 8 3 1 4 3 4 9 3 5 8 4 2 1 2 1 7 8 11 5 7 9 8 8 9 10 5 7 6 6 0 3 3 2 3 2 3 2 2 2 11 13 19 19 14 13 15 16 14 14 12 10 6
9 6 1 2 4 4 3 7 2 5 3 2 2 2 2 3 2 7 3 2 3 4 4 2 6 2 6 8 6 6 3 3 5 4 7 5 7 7 5 3 7 3 6 4 7 7 7 6 8 5 2 3 9 6 9 5 9 8 2 8 7 6 5 7 5 10 6 5 3 2 4 5 4 2 6 6 5 5 6 9 10 11 12 12 11 11 12 9
8 5 2 2 1 2 3 5 1 4 2 1 3 3 4 3 2 2 3 4 3 5 6 9 2 0 3 1 0 5 4 1 2 7 7 9 9 7 7 7 2 6 3 10 3 2 11 3 5 6 3 5 8 4 6 8 7 4 4 6 5 10 6 4 3 4 2 2 1 1 3 0 1 3 6 4 9 10 11 12 11 10 9 8 6 8 9 6
8 4 3 2 1 0 4 4 4 3 0 1 1 3 4 2 0 3 1 3 3 5 10 11 1 2 1 2 0 7 7 1 3 4 1 7 3 5 2 2 5 5 5 7 2 4 4 4 0 3 4 4 8 7 5 9 9 5 7 10 8 5 6 5 2 1 4 3 3 1 3 2 2 2 4 11 12 12 12 11 12 12 12 11 6 1 9 7
3 3 2 1 1 2 5 6 4 2 1 2 1 3 1 3 1 1 3 3 2 4 5 4 4 4 3 1 1 4 4 2 2 4 3 3 3 5 6 3 5 2 5 8 0 1 9 2 2 4 8 5 4 13 6 8 6 6 7 8 4 4 6 4 3 1 1 5 4 2 4 3 4 3 5 11 11 12 12 12 11 12 12 13 12 3 2 7
4 3 3 1 2 2 4 4 5 2 1 1 3 6 3 2 2 2 4 4 0 2 1 1 1 3 1 1 3 0 2 4 2 2 4 4 2 5 6 5 4 7 5 1 4 3 5 1 4 4 8 7 2 4 5 5 6 14 9 4 8 3 6 2 3 1 2 4 3 3 3 2 6 4 7 15 13 12 15 13 14 15 13 13 11 13 9 6
2 1 3 0 3 5 3 5 3 4 1 1 1 3 1 3 3 4 4 4 2 2 2 3 5 1 2 2 2 3 1 4 1 2 5 3 1 5 9 5 4 7 9 5 1 2 2 4 1 3 8 5 4 6 10 10 4 3 8 9 4 4 3 4 5 3 6 2 1 4 4 5 7 4 9 13 18 17 16 17 15 14 11 11 10 11 11 11
3 2 1 1 5 4 6 3 3 1 1 1 2 4 1 4 2 4 4 5 1 2 2 3 4 2 4 2 1 1 3 3 5 3 1 1 1 0 7 9 5 7 9 6 3 3 2 1 1 3 4 6 7 7 11 11 10 4 7 6 3 3 1 6 1 3 4 6 4 2 4 4 4 6 11 13 19 21 21 17 15 14 14 13 13 12 12 10
0 1 2 2 3 6 5 1 1 1 1 1 1 3 3 3 3 4 4 6 1 3 2 3 3 1 2 5 4 3 2 1 1 2 2 1 3 2 5 6 8 10 4 6 8 2 2 2 5 0 4 9 6 0 4 6 7 5 7 6 8 7 6 10 8 3 3 5 3 4 8 1 4 1 11 12 13 17 17 20 17 16 15 14 13 12 13 12
2 3 1 3 1 8 5 2 1 1 2 2 1 2 3 5 3 4 5 5 1 1 2 3 4 3 2 4 3 2 0 2 1 1 0 4 3 1 4 9 12 10 10 6 8 4 6 3 3 2 7 8 3 4 7 11 8 7 10 7 6 4 6 4 6 5 3 0 3 3 0 3 2 4 5 12 10 11 11 14 13 13 15 14 13 13 11 12
2 4 3 2 2 4 2 2 2 2 3 2 5 3 2 2 1 3 4 3 3 1 2 3 3 2 2 2 0 1 2 1 3 4 3 4 3 9 5 11 10 12 11 4 4 4 4 1 3 3 5 4 4 4 1 5 10 2 6 5 6 6 7 8 7 6 5 1 1 1 1 3 2 1 3 9 9 9 8 11 14 12 12 13 15 13 13 11
2 2 2 1 1 1 1 1 1 1 3 5 3 5 3 3 3 3 1 2 1 4 3 3 4 4 3 1 1 1 1 1 1 1 1 2 3 3 7 8 10 8 10 6 7 4 4 2 6 1 1 1 3 2 2 2 2 4 5 6 8 7 4 2 5 2 5 8 8 6 5 3 2 1 7 10 12 12 12 11 14 14 11 12 13 12 11 13
4 1 2 0 1 2 3 2 1 2 2 1 2 4 3 2 2 4 3 2 2 1 2 4 5 2 3 0 3 3 3 2 1 2 1 0 2 0 2 10 9 5 6 7 8 7 4 3 4 3 7 8 8 11 9 6 9 3 2 7 7 9 7 5 4 2 7 4 5 5 3 4 2 6 9 12 12 10 10 11 10 13 14 13 11 11 11 11
2 2 1 2 2 4 3 1 4 1 1 1 2 4 1 2 1 3 4 4 4 5 6 7 9 7 6 0 1 1 2 2 5 2 2 1 2 1 4 6 11 6 6 13 11 9 3 2 5 6 4 6 3 3 2 3 3 4 4 10 9 9 8 6 6 4 8 3 6 5 6 7 9 12 14 15 14 15 15 14 14 13 13 12 11 11 11 11
1 1 1 2 2 2 4 2 4 3 2 1 1 3 2 1 2 4 4 1 3 5 3 8 5 3 3 2 2 2 1 2 2 1 3 1 2 2 3 6 5 5 13 9 11 6 3 4 4 7 7 10 5 2 2 1 2 5 8 8 10 11 8 8 7 8 5 11 6 2 7 14 13 13 12 14 15 16 14 14 14 13 13 13 12 12 13 12
1 1 1 2 1 2 1 5 5 4 6 4 3 3 2 2 2 2 1 4 7 7 4 1 8 10 3 4 2 0 2 2 0 1 2 1 1 4 3 3 3 2 3 4 9 4 5 5 3 5 7 4 2 3 2 2 3 2 6 9 12 11 10 12 12 8 9 7 8 6 11 12 14 19 21 21 22 21 21 18 15 14 13 13 14 14 14 14
0 2 2 2 3 1 3 2 1 5 5 3 2 2 3 3 6 4 3 2 3 3 10 3 2 6 8 3 2 2 3 1 0 1 1 1 1 2 2 1 1 3 4 5 7 3 5 2 4 4 4 3 2 2 3 4 2 1 2 5 10 13 13 14 11 7 12 6 5 14 17 14 8 16 15 13 11 12 11 12 13 15 16 15 15 14 14 14
4 3 3 1 3 4 4 2 1 2 3 5 3 4 2 2 5 2 2 4 2 4 2 3 0 2 3 5 5 3 4 2 2 1 1 0 1 0 0 2 1 4 2 6 6 2 5 2 4 2 4 2 1 6 10 6 2 2 4 1 2 8 15 13 8 5 6 5 2 9 13 4 1 9 10 11 11 11 12 14 16 15 16 18 16 14 14 14
3 3 3 4 5 3 2 2 3 3 3 3 4 4 3 6 7 5 5 3 6 4 2 2 1 2 1 2 5 7 5 4 5 3 3 1 0 1 1 1 2 1 3 3 2 2 4 2 2 2 5 1 3 8 7 6 4 3 2 3 2 6 7 3 6 6 7 6 9 11 7 2 5 12 11 13 15 16 17 17 15 14 15 17 18 16 15 14
3 4 4 3 3 3 3 2 2 3 6 5 6 4 3 2 1 4 5 5 6 10 5 1 1 1 4 3 4 4 4 4 5 5 5 5 3 4 1 2 2 0 0 1 1 4 4 6 2 2 5 0 2 6 7 4 3 0 2 2 4 4 2 0 2 2 2 16 12 10 11 10 15 18 18 17 18 17 16 15 14 14 14 15 17 17 15 15
Wind_Direction
302 306 307 307 310 311 314 314 316 318 317 317 318 321 321 325 323 323 323 323 323 325 321 321 326 327 329 331 329 327 336 333 315 309 295 250 234 254 258 244 333 39 245 160 328 341 352 33 90 8 79 103 240 126 224 84 130 67 161 124 241 195 169 213 192 190 199 307 304 336 355 348 333 19 39 44 49 88 79 72 71 54 61 97 115 116 118 128
299 300 302 303 305 308 309 310 314 315 315 316 318 317 320 321 322 319 322 326 324 324 325 320 321 327 328 328 328 331 340 322 304 287 247 250 245 248 245 245 231 102 112 83 130 145 117 43 167 96 122 132 294 126 124 237 103 130 131 136 234 169 238 162 201 228 341 289 295 294 47 353 291 144 345 91 128 115 85 80 86 100 99 100 115 118 124 130
293 296 298 302 302 303 306 307 310 313 314 315 316 315 316 315 317 320 320 321 324 325 326 325 324 324 328 327 324 354 350 317 308 265 266 253 245 252 248 242 220 185 155 142 186 151 164 199 165 112 101 95 218 153 150 224 158 221 125 227 239 208 243 209 223 273 214 268 300 314 321 17 301 336 49 117 143 124 135 127 114 128 128 129 127 125 130 135
289 291 294 297 301 301 302 304 306 309 312 312 313 313 312 314 319 320 320 321 326 321 321 326 326 325 323 326 336 344 357 292 273 239 303 305 328 325 272 232 214 195 141 245 148 163 70 85 113 115 116 112 256 115 150 227 138 258 145 212 230 205 213 260 208 235 262 260 274 304 306 346 324 248 108 153 93 305 278 213 157 155 145 140 137 134 136 139
289 286 290 293 296 298 300 304 306 307 308 310 309 309 310 311 317 317 321 317 323 325 322 326 330 324 327 326 335 16 314 2 253 159 3 347 347 338 333 237 208 170 164 141 107 330 166 156 117 76 98 191 98 97 243 221 197 119 218 163 204 113 202 257 239 246 246 249 313 312 331 296 322 64 131 172 171 205 213 197 202 147 146 146 144 141 140 139
286 285 286 288 293 296 299 300 304 306 305 307 309 310 310 311 313 317 316 314 317 325 323 323 328 333 325 334 326 63 153 201 345 42 349 1 359 348 342 238 179 144 138 141 152 150 140 156 105 147 129 110 186 160 264 187 151 216 285 233 239 232 239 230 235 201 142 311 311 313 269 1 134 217 153 136 3 262 153 101 124 134 138 128 130 140 142 139
286 281 281 284 282 290 296 298 301 303 305 308 309 310 312 310 313 318 315 317 317 323 319 323 324 324 333 337 314 142 205 284 325 296 3 4 6 356 359 121 142 138 143 133 151 133 194 141 120 176 120 109 270 181 238 173 272 224 244 269 278 218 239 253 275 273 288 294 273 241 306 283 139 127 300 69 318 84 97 115 126 125 128 132 131 132 131 133
290 286 282 280 282 284 290 295 298 300 303 305 308 309 309 309 311 313 314 311 317 315 317 318 329 326 338 348 340 334 323 250 247 17 4 5 3 3 3 39 94 131 143 167 158 170 139 146 172 143 112 157 216 161 218 132 108 220 256 263 273 261 235 245 262 302 283 271 259 265 278 299 168 151 104 45 75 93 110 121 127 128 128 126 131 132 128 129
296 293 289 288 280 279 282 288 292 295 300 305 305 308 309 312 315 316 314 312 310 313 313 317 321 332 348 294 315 318 255 239 147 31 17 7 352 9 16 26 354 140 162 146 168 165 141 227 163 179 211 179 200 154 217 139 289 214 217 226 281 276 273 269 314 266 267 272 204 286 294 353 139 102 63 121 117 117 125 125 131 131 132 134 134 133 135 136
300 293 287 285 284 281 281 285 288 293 297 302 306 307 309 310 311 310 308 306 304 304 307 312 314 337 333 312 290 276 266 278 52 11 3 2 350 347 25 32 13 69 124 167 130 136 177 202 171 191 128 129 159 196 170 154 227 170 188 213 231 255 299 296 226 300 21 225 206 204 262 234 283 56 262 127 132 133 133 130 132 134 132 131 133 138 142 147
305 297 291 286 290 293 281 277 285 290 293 299 304 305 307 310 310 309 305 303 303 301 306 303 315 327 316 2 279 240 272 31 11 345 343 348 342 344 333 349 342 18 102 133 167 185 179 145 189 116 336 225 142 254 133 213 198 234 221 273 274 280 276 258 309 278 241 293 197 194 215 281 300 33 169 143 139 143 138 139 141 140 133 135 141 144 147 143
313 304 296 289 285 281 280 279 278 284 289 296 301 302 306 308 308 307 304 301 302 303 302 309 305 326 253 246 238 227 317 310 311 316 319 332 312 293 280 270 277 253 112 131 214 250 146 181 110 108 182 137 196 157 250 242 5 257 159 294 289 350 305 289 214 243 155 245 156 150 68 326 336 316 167 137 142 145 142 143 145 142 137 140 147 149 143 158
318 312 303 295 288 285 287 286 280 281 288 294 298 303 304 306 309 308 307 303 299 302 305 307 303 224 305 272 245 259 285 285 300 310 300 308 283 262 253 242 229 218 177 126 193 214 141 273 97 11 241 116 188 130 212 32 256 52 67 146 344 2 320 275 256 150 141 252 166 138 137 271 264 274 154 146 141 143 145 145 144 141 137 147 150 143 155 154
323 317 312 303 294 286 282 284 282 280 284 290 295 298 300 301 302 302 302 299 300 296 298 296 328 199 223 257 287 264 273 276 286 289 283 347 296 294 251 205 200 204 194 172 216 158 121 177 202 216 72 113 198 302 39 344 24 185 251 70 204 149 261 285 146 34 148 225 172 118 172 273 275 266 160 154 148 149 151 148 145 137 139 147 110 34 318 125
321 319 315 310 300 291 286 283 286 287 284 288 291 293 296 296 295 295 296 296 292 298 301 315 255 316 262 277 278 263 253 264 268 260 271 284 254 321 354 77 157 195 197 178 165 190 170 122 98 253 276 252 205 14 338 23 355 16 107 248 328 164 278 294 281 174 156 314 195 93 190 234 252 193 164 155 152 150 143 147 145 142 139 128 120 140 266 318
319 317 315 315 306 298 289 283 284 285 281 285 288 287 290 292 287 286 288 284 281 285 311 291 227 186 311 294 263 325 48 162 258 235 244 191 190 207 196 74 246 197 142 227 193 138 161 121 150 184 213 63 100 111 34 26 306 353 168 277 195 142 251 352 284 218 202 104 329 163 200 88 251 181 44 36 22 331 154 144 142 140 134 132 153 153 170 222
316 314 315 313 311 302 294 287 282 280 293 291 293 296 298 288 283 277 281 279 274 263 221 232 152 174 237 220 315 289 258 242 266 323 131 191 189 188 126 30 164 12 48 72 141 109 94 132 211 73 235 155 158 116 111 280 285 246 5 163 206 163 224 247 296 307 131 111 175 33 117 215 218 112 118 129 136 301 271 152 150 146 148 144 155 161 147 174
313 313 311 311 311 308 300 287 282 284 290 301 306 312 302 290 286 286 279 257 204 228 228 234 259 240 255 289 285 238 275 286 306 249 201 192 181 168 172 114 87 94 84 78 358 117 169 139 124 199 114 184 153 150 180 210 190 157 129 133 278 48 179 211 150 267 99 70 147 54 94 212 109 127 162 172 174 163 207 181 165 155 149 156 165 149 155 147
311 309 312 307 308 307 302 299 289 282 285 293 313 315 298 293 325 74 157 179 141 102 78 199 177 167 204 199 244 313 275 239 267 254 277 101 151 163 55 109 100 141 169 136 231 128 158 74 70 104 198 189 198 185 165 178 135 159 150 165 156 152 216 190 248 285 187 133 120 142 156 156 144 137 173 177 200 176 188 178 186 163 147 156 151 146 163 120
308 306 307 306 306 303 302 296 291 283 290 305 3 336 3 29 346 344 145 188 230 211 220 152 201 271 314 291 176 247 279 342 340 271 120 133 107 129 101 116 58 78 127 179 157 186 132 159 188 205 199 174 141 157 158 197 151 148 108 117 169 179 276 287 286 270 334 83 242 170 147 154 167 163 180 182 184 208 190 180 185 177 145 153 145 153 127 113
307 305 304 301 300 301 302 307 300 284 297 129 36 41 288 83 14 313 332 241 220 238 253 237 197 219 232 56 3 33 13 320 8 279 246 140 123 129 200 119 117 180 197 147 143 240 148 187 219 189 158 164 159 147 157 104 67 132 134 128 162 163 206 241 226 336 332 155 290 80 117 170 175 177 178 169 181 194 192 191 122 272 132 138 132 147 121 112
304 303 302 301 298 299 301 299 291 292 276 151 122 244 230 224 219 336 304 284 232 229 234 241 224 242 252 258 279 35 34 316 311 286 274 152 214 178 208 161 159 187 130 160 82 136 186 209 176 160 162 132 138 149 168 181 176 71 122 130 112 268 258 291 296 304 302 76 279 56 118 228 240 206 174 175 187 186 195 109 160 218 355 67 137 133 116 119
301 300 301 301 297 295 302 307 312 304 139 170 180 169 234 253 333 290 274 288 278 231 223 225 229 235 248 253 242 192 207 206 246 279 239 143 153 225 151 157 171 142 163 182 180 159 201 225 162 154 128 118 123 153 156 175 190 177 95 102 165 241 134 258 314 337 360 91 214 154 100 328 323 54 83 35 53 72 59 44 60 64 145 181 225 125 123 118
297 297 295 291 293 295 298 301 297 272 210 221 229 214 245 292 286 317 300 267 298 267 195 211 207 218 231 204 203 178 178 222 174 270 219 160 150 186 155 167 134 154 198 194 193 183 194 139 166 139 142 138 144 161 151 157 205 154 162 133 168 129 218 147 153 313 341 28 105 92 47 337 347 152 147 80 74 76 75 66 43 105 70 332 132 110 118 127
294 294 292 292 292 296 304 303 261 216 157 205 246 256 246 253 271 257 269 288 253 270 192 228 169 239 233 118 137 157 208 248 215 234 216 148 167 130 226 143 126 203 183 157 161 197 265 255 133 143 155 142 140 162 176 148 158 151 226 170 182 181 222 290 354 59 21 26 278 134 11 278 271 256 197 101 84 80 115 114 136 115 105 64 71 139 119 118
295 293 292 289 293 295 321 277 218 164 150 226 225 148 137 301 265 237 206 290 290 245 114 258 152 254 132 175 148 165 106 238 207 221 183 193 176 163 126 195 174 190 158 144 180 190 199 205 162 161 156 160 154 164 194 155 166 148 237 175 167 162 178 69 351 72 33 142 259 49 180 262 322 226 194 121 109 104 139 149 143 116 111 113 85 264 143 140
297 292 288 291 286 302 337 240 65 121 110 270 123 7 312 317 303 196 200 221 283 192 150 19 159 214 170 175 155 142 97 258 181 182 195 241 175 197 154 195 105 83 137 148 73 243 166 155 167 149 156 164 157 176 207 158 136 209 204 165 143 129 155 208 98 104 206 254 302 129 146 184 284 247 149 136 126 129 133 165 141 129 126 134 167 177 155 139
296 294 294 288 282 264 243 42 327 176 189 81 4 4 316 307 328 214 241 298 277 124 138 212 226 130 110 157 167 168 199 117 109 211 184 187 144 196 164 201 172 152 160 142 197 352 158 182 161 168 163 173 192 162 144 148 140 212 186 156 170 159 175 152 120 95 195 40 280 317 74 166 244 270 138 146 137 140 152 166 168 143 146 149 155 179 150 134
295 293 290 285 285 286 214 211 219 237 337 337 334 299 340 257 197 175 232 129 178 76 133 89 251 89 30 133 181 228 355 217 134 180 166 123 218 119 187 224 144 152 173 180 172 219 260 175 176 146 161 186 144 145 150 146 133 241 159 145 139 148 154 148 129 166 313 41 259 235 185 195 284 228 152 159 160 157 166 176 175 157 160 163 162 195 161 144
302 296 291 297 301 307 225 208 237 165 224 297 282 300 304 63 137 152 175 258 84 54 214 183 198 179 146 152 206 231 291 303 51 98 131 150 208 307 288 148 133 144 158 71 159 207 171 317 157 143 178 168 145 149 153 162 174 128 124 97 73 92 94 41 66 107 57 268 246 198 174 156 270 221 175 171 190 144 157 174 174 160 166 170 169 153 169 148
296 291 300 305 212 257 131 238 303 283 259 263 259 259 172 171 197 162 188 240 39 354 24 92 170 115 138 151 185 221 275 303 86 148 138 162 168 172 141 165 55 101 80 100 200 240 10 78 144 231 141 164 128 148 174 167 138 139 149 117 96 28 48 38 352 50 174 248 266 128 177 157 207 287 203 149 136 165 169 173 180 173 175 175 147 131 101 240
297 288 274 230 244 295 223 136 185 246 239 234 252 122 123 213 63 159 203 3 105 338 55 54 113 136 148 175 51 175 184 143 197 165 156 171 165 167 193 173 165 149 186 177 200 8 275 171 249 295 161 139 151 126 199 177 159 163 115 127 145 185 98 207 51 201 211 211 350 313 131 68 246 209 187 170 161 170 180 178 177 173 168 150 141 153 145 194
312 297 281 265 242 168 220 125 276 284 274 261 205 67 190 236 205 218 292 319 80 26 313 342 25 340 174 172 239 169 232 181 180 163 146 147 150 213 281 165 200 138 175 158 97 152 270 335 301 280 150 175 148 154 160 169 190 168 158 154 153 143 175 195 219 259 323 283 265 157 276 266 247 281 260 179 179 178 177 177 165 167 160 145 154 150 142 175
336 332 300 225 220 205 162 163 195 322 336 312 173 95 250 247 262 165 226 358 333 2 330 15 319 239 171 181 207 138 183 249 141 171 163 146 151 176 219 237 160 95 89 155 134 171 149 232 245 157 222 201 170 167 169 148 161 194 88 153 170 159 167 193 186 198 213 206 316 299 118 235 120 240 325 274 175 108 118 133 151 151 147 138 142 137 140 170
345 353 299 285 249 213 197 107 92 299 300 312 104 218 212 213 74 59 57 339 356 323 323 320 260 67 165 207 257 149 158 195 170 137 170 154 188 179 177 187 212 113 144 134 230 97 199 201 261 178 202 179 176 152 136 121 157 195 149 77 122 211 133 130 199 126 185 131 50 221 200 170 181 281 291 114 109 106 113 110 114 95 82 79 86 135 138 164
356 291 281 283 256 73 110 126 178 214 143 54 83 234 225 314 355 36 33 357 15 5 330 316 133 76 12 149 257 170 226 134 191 102 133 168 145 171 186 161 177 172 148 155 194 163 91 224 287 161 189 166 175 157 184 148 174 205 125 194 200 129 92 99 50 71 105 64 248 144 330 233 252 316 97 120 116 123 121 124 117 117 117 113 76 115 148 141
325 324 5 323 306 156 143 159 180 135 69 97 94 276 307 310 178 130 30 65 41 338 328 9 12 25 29 201 193 163 208 88 177 118 176 135 177 177 173 209 145 132 164 126 358 186 148 219 282 122 201 238 203 171 189 180 150 115 191 207 102 99 111 126 192 353 75 170 241 92 205 140 109 271 149 124 125 133 132 132 129 131 140 144 139 99 355 130
322 322 291 259 263 147 151 160 121 118 101 125 192 249 4 299 309 67 124 93 192 331 307 337 45 54 24 58 17 69 216 164 226 108 163 186 236 169 157 172 192 160 193 133 130 242 124 100 242 193 178 205 166 147 181 223 167 181 193 163 138 191 210 291 99 173 144 190 266 305 232 252 190 208 155 138 131 131 135 144 148 149 153 150 133 131 126 88
327 359 353 23 0 160 154 135 108 119 108 136 236 288 257 255 275 57 92 118 132 282 9 360 20 332 51 47 271 304 192 169 175 163 120 239 121 198 175 152 185 169 179 157 84 174 85 152 292 256 174 196 164 160 194 194 263 62 114 160 190 120 183 114 194 168 113 212 66 292 125 242 188 182 175 152 141 151 152 155 155 147 139 136 136 136 129 129
18 6 300 319 341 125 133 128 102 72 77 182 192 241 343 307 300 89 106 89 84 348 358 332 35 336 342 340 1 90 331 127 147 236 108 238 119 226 185 167 158 171 180 174 185 151 137 108 175 271 243 134 200 193 205 179 171 136 154 181 178 209 234 116 30 129 159 166 192 178 284 247 211 162 163 169 156 162 161 158 155 155 148 144 145 141 136 138
209 107 267 316 354 130 115 88 90 176 217 299 312 263 261 266 348 10 76 102 118 240 233 307 322 303 351 347 344 25 340 356 151 148 169 238 150 157 235 183 145 167 140 177 216 182 77 201 196 198 152 205 203 200 115 151 151 162 156 190 187 135 106 155 222 47 101 107 201 166 242 297 271 220 163 174 173 165 167 158 156 151 147 145 144 146 142 137
340 340 339 352 338 142 127 88 294 341 297 241 189 331 298 340 354 29 20 45 30 236 218 261 240 240 215 223 252 337 93 317 226 115 254 155 222 174 219 173 156 155 154 185 188 230 154 166 106 168 214 193 176 142 156 160 159 173 164 216 160 142 131 140 184 233 64 206 107 156 72 286 248 269 191 165 162 161 157 149 143 142 141 139 140 140 135 130
344 272 9 276 223 183 166 82 209 189 252 276 328 285 282 289 332 351 356 34 13 108 278 225 260 306 229 192 181 207 175 254 176 181 193 173 228 209 213 176 157 157 152 166 133 222 134 114 131 277 309 297 306 312 8 161 145 140 212 171 136 183 186 178 175 181 126 145 74 329 165 250 294 8 144 137 136 134 132 139 136 136 137 140 140 139 131 124
287 295 307 359 262 64 349 114 234 247 256 290 282 270 277 253 299 323 356 22 105 348 342 340 310 224 286 141 91 275 243 80 245 116 193 220 222 165 161 165 168 164 158 210 169 207 157 271 122 113 75 20 36 47 72 345 160 171 188 204 186 180 120 121 97 137 138 204 166 127 222 263 290 31 119 128 133 134 135 138 138 135 139 139 138 135 130 131
296 232 269 48 172 165 230 340 252 167 250 307 319 311 320 295 206 231 245 233 138 191 304 259 239 290 279 145 207 228 266 170 324 293 144 236 230 33 211 152 180 158 181 172 172 153 170 190 142 144 155 155 169 176 193 180 200 218 181 186 203 188 154 122 142 181 181 237 141 170 222 257 201 128 131 138 135 125 130 137 138 139 141 140 137 132 130 127
343 358 116 80 178 207 276 256 301 291 172 248 327 268 213 279 307 295 231 269 187 233 238 276 301 286 282 341 322 290 301 170 163 294 5 324 314 290 155 160 174 175 206 174 159 141 168 133 142 152 155 175 202 187 232 137 111 185 209 183 200 204 184 152 116 126 200 186 185 230 163 144 158 155 158 157 148 145 147 150 151 148 144 136 129 128 128 126
288 4 350 112 53 259 268 306 287 306 322 324 249 3 331 18 320 323 124 298 200 202 244 220 223 191 244 199 234 282 206 325 252 285 254 210 247 239 320 154 166 209 189 174 160 105 91 164 194 156 186 210 177 168 177 228 189 219 177 199 196 195 181 163 174 213 168 111 220 267 178 148 189 167 163 156 153 151 153 152 149 145 143 138 132 130 128 127
355 74 319 43 298 208 214 271 217 243 267 322 303 350 287 317 350 319 321 230 255 221 226 223 209 227 237 178 149 85 294 271 263 209 325 214 315 334 52 11 104 299 239 169 164 134 141 166 245 141 220 220 182 173 188 153 190 196 202 191 193 198 168 185 205 206 147 177 207 202 181 184 184 181 172 171 168 167 164 159 148 139 130 128 133 136 136 134
209 282 265 303 287 331 210 240 186 213 256 267 294 260 276 273 277 218 206 305 268 236 189 266 267 228 235 230 177 257 188 169 308 228 219 331 24 344 32 359 205 5 155 146 170 165 121 198 187 166 168 220 198 188 197 161 124 29 214 226 202 176 188 189 200 178 181 207 202 164 181 203 190 183 170 155 136 129 128 127 133 140 143 139 139 140 139 139
15 345 329 332 241 261 257 243 303 193 232 236 254 221 225 234 261 267 225 210 248 270 165 214 150 305 235 218 194 219 230 155 184 127 267 92 344 85 118 191 295 331 50 156 168 230 124 226 154 189 131 185 320 42 43 59 83 105 340 11 191 200 188 192 167 144 99 46 94 166 164 158 95 133 131 122 120 117 121 139 146 147 145 145 143 143 141 137
312 242 237 295 309 256 215 210 219 230 252 206 231 262 239 244 265 259 261 204 236 260 265 272 233 307 250 173 178 230 244 174 189 239 223 158 99 217 121 294 143 341 360 134 148 153 116 204 59 97 144 279 352 55 40 31 32 72 18 3 84 148 170 183 160 201 151 154 128 121 141 189 152 128 124 132 137 143 146 148 148 153 154 148 147 145 142 139
277 236 262 273 273 298 311 213 217 198 237 212 198 217 215 235 213 355 326 269 235 237 233 309 292 352 310 15 290 247 246 203 230 238 235 234 244 295 4 196 153 153 153 122 302 132 141 128 132 118 107 223 2 66 49 15 36 32 256 242 273 288 293 300 314 184 175 142 122 139 212 177 157 147 144 154 153 151 148 152 148 150 153 151 145 142 142 146